Location: Ashton River Estates
(39.1762°N, 77.0261°W)
Time: 23:41:56
(UTC+00:00)

IRS-1C Rocket - Pass Details

Date: 29 October 2020
Orbit: 800 x 805 km, 99.0° (Epoch: 02 December)

Event Time Altitude Azimuth Distance (km) Brightness Sun altitude
Rises 23:29:45 0° 169° (S) 3,299 7.2 -16.0°
Reaches altitude 10° 23:32:05 10° 171° (S) 2,373 6.5 -16.4°
Maximum altitude 23:37:20 76° 257° (WSW) 831 4.3 -17.5°
Drops below altitude 10° 23:42:37 10° 343° (NNW) 2,392 6.7 -18.5°
Sets 23:44:58 0° 345° (NNW) 3,327 7.5 -18.9°
